Regional Weather Roundup
Issued by NWS

Home | Current Version | Previous Version | Text Only | Print | Product List | Glossary Off
Versions: 1 2 3 4 5 6 7 8 9 10 11 12 13 14 15 16 17 18 19 20 21 22 23 24 25 26 27 28 29 30 31 32 33 34 35 36 37 38 39 40 41 42 43 44 45 46 47 48 49 50

000
ASUS43 KDTX 221510
RWRMI
MICHIGAN HOURLY REGIONAL WEATHER ROUNDUP
NATIONAL WEATHER SERVICE DETROIT/PONTIAC MI
1100 AM EDT FRI SEP 22 2017

NOTE: "FAIR" INDICATES FEW OR NO CLOUDS BELOW 12,000 FEET WITH NO
SIGNIFICANT WEATHER AND/OR OBSTRUCTION TO VISIBILITY.

MIZ047>049-052>055-059>063-066>070-074>076-081>083-221600-
SOUTHEAST LOWER MICHIGAN

CITY           SKY/WX    TMP DP  RH WIND       PRES   REMARKS
ADRIAN         SUNNY     81  69  67 SE3       30.13F
ALMA           SUNNY     82  67  60 CALM      30.11F
ANN ARBOR      SUNNY     81  69  67 CALM      30.13S
BAD AXE        SUNNY     79  65  61 S6        30.13S
CARO           SUNNY     81  66  59 CALM      30.11F
DETROIT CITY   SUNNY     78  66  66 E3        30.13F
DETROIT        MOSUNNY   79  68  69 SE3       30.14S
FLINT          SUNNY     81  68  64 CALM      30.12S
HILLSDALE      SUNNY     84  68  58 W3        30.14S
HOWELL         SUNNY     80  69  67 S3        30.13F

CITY           SKY/WX    TMP DP  RH WIND       PRES   REMARKS
JACKSON        SUNNY     84  68  58 VRB3      30.13S
LAMBERTVILLE   SUNNY     82  71  69 CALM      30.12S
LANSING        SUNNY     83  69  62 CALM      30.12F
LAPEER         FAIR      80  66  63 CALM      30.14S
MASON          SUNNY     83  71  66 CALM      30.13S
MONROE         SUNNY     80  67  64 SE3       30.12S
MT. CLEMENS    SUNNY     77  72  86 E5        30.12F
PONTIAC        MOSUNNY   79  67  66 SE5       30.13S
PORT HOPE        N/A     78  66  66 SE6       30.11S
PORT HURON     SUNNY     79  66  65 CALM      30.14S
TRI CITIES     SUNNY     80  69  69 W5        30.12S
MIDLAND        FAIR      80  67  65 CALM      30.11S
TROY           SUNNY     79  68  69 E3        30.15S
SAGINAW HB     SUNNY     79  66  65 CALM      30.10F
$$
MIZ043>046-050>051-056>058-064>065-071>073-077>080-221600-
SOUTHWEST LOWER MICHIGAN

CITY           SKY/WX    TMP DP  RH WIND       PRES   REMARKS
BATTLE CREEK   SUNNY     82  70  66 SW3       30.13S
BENTON HARBOR  SUNNY     83  69  62 CALM      30.10S
BIG RAPIDS     SUNNY     80  67  64 SW5       30.10S
COLDWATER      SUNNY     83  69  62 W3        30.13S
FREMONT        FAIR      81  69  67 S5        30.09S
HOLLAND        SUNNY     85  69  58 SW6       30.10S
GRAND RAPIDS   MOSUNNY   85  69  58 SW3       30.10S
IONIA          FAIR      83  68  61 CALM      30.10S
KALAMAZOO      SUNNY     81  68  64 S3        30.12S
LUDINGTON      SUNNY     78  69  74 CALM      30.06S
MARSHALL       SUNNY     82  70  65 W3        30.12F
MOUNT PLEASANT SUNNY     81  66  60 CALM      30.10F
MUSKEGON       MOSUNNY   84  68  58 S10       30.09S
SOUTH HAVEN    SUNNY     84  69  60 CALM      30.10S
$$
MIZ016>042-221600-
NORTHERN LOWER MICHIGAN

CITY           SKY/WX    TMP DP  RH WIND       PRES   REMARKS
ALPENA         SUNNY     80  68  66 SW7       30.08F
BEAVER ISLAND  SUNNY     81  69  67 SW12      30.04R
BELLAIRE       SUNNY     81  68  65 S6        30.06S
CADILLAC       SUNNY     82  66  57 SW7       30.10S
CHARLEVOIX     SUNNY     82  68  63 S6        30.07S
FRANKFORT      SUNNY     84  71  63 SW6       30.05S
GAYLORD        SUNNY     78  67  68 S7        30.10F
GRAYLING       SUNNY     80  67  63 CALM      30.11F
HARBOR SPRINGS SUNNY     80  69  69 CALM      30.04S
HOUGHTON LAKE  SUNNY     79  67  66 S7        30.12F
MANISTEE       SUNNY     82  70  66 S5        30.05S
OSCODA         SUNNY     80  68  67 SW6       30.10S
PELLSTON       SUNNY     81  70  69 S6        30.05S
ROGERS CITY    MOSUNNY   80  69  70 SW8       30.07S
TRAVERSE CITY  SUNNY     84  69  60 VRB5      30.04S
$$
MIZ007>008-015-221600-
EASTERN UPPER MICHIGAN

CITY           SKY/WX    TMP DP  RH WIND       PRES   REMARKS
MACKINAC ISLAN SUNNY     78  69  74 S5        30.05R
NEWBERRY       SUNNY     74  72  93 S14G20    30.03R
S. S. MARIE    SUNNY     73  67  81 SE5       30.04S
MUNISING         N/A     77  71  82 S9        29.98R
$$
MIZ004>006-011>014-085-221600-
CENTRAL UPPER MICHIGAN

CITY           SKY/WX    TMP DP  RH WIND       PRES   REMARKS
MANISTIQUE     MOSUNNY   71  65  81 S8        30.03R
ESCANABA       MOSUNNY   73  69  87 S6        30.01R
MENOMINEE      SUNNY     79  70  74 SW9       30.01S
SAWYER-GWINN   SUNNY     73  66  78 SW12      30.00S
$$
MIZ001>003-009>011-084-221600-
WESTERN UPPER MICHIGAN

CITY           SKY/WX    TMP DP  RH WIND       PRES   REMARKS
IRON MOUNTAIN  SUNNY     74  66  76 SE6       29.99F
HOUGHTON       CLOUDY    72  66  81 SE3       29.93F
COPPER HARBOR    N/A     75  67  76 SW10G20   29.90F
IRONWOOD       CLOUDY    68  64  87 N7        30.00R THUNDER
$$

ABBREVIATIONS USED IN REMARKS
   TC - TEMPERATURE IN CELSIUS
  WCI - WIND CHILL INDEX
   HX - HEAT INDEX
  VSB - VISIBILITY




USA.gov is the U.S. government's official web portal to all federal, state and local government web resources and services.